Flag for United Kingdom Weather past 2 weeks in Lerwick (Shetland Islands), Scotland, United Kingdom

Now
39 °F

Passing clouds.


Feels Like: 30 °F
Forecast: N/A
Wind: 17 mph from Northwest

Location: Lerwick

Current Time: Dec 20, 2014 at 4:59:21 PM

Latest Report: Dec 20, 2014 at 4:00 PM


Visibility: 13 mi

Pressure: 29.90 "Hg

Humidity: 69%

Dew point: 30 °F

Location of Lerwick (Shetland Islands)Location

Historic Weather in Lerwick (Shetland Islands) — Graph

°F

Lerwick (Shetland Islands) temperature yesterday

Maximum temperature yesterday: 43 °F (at 1:00 PM)
Minimum temperature yesterday: 35 °F (at 4:00 AM)
Average temperature yesterday: 39 °F

Past Weeks' High & Low Weather Summary

 TemperatureHumidityPressure
High47 °F (Dec 6, 2:00 PM)99% (Dec 17, 8:00 AM)30.06 "Hg (Dec 17, 8:00 AM)
Low31 °F (Dec 13, 9:00 AM)49% (Dec 19, 12:00 PM)28.67 "Hg (Dec 10, 8:00 PM)
Average39 °F78%29.25 "Hg
* Reported Dec 5 3:00 PM — Dec 20 3:00 PM, Lerwick (Shetland Islands), Weather by CustomWeather, © 2014

Note: Actual official high and low records may vary slightly from our data, if they occured in-between our weather recording intervals... More about our weather records

Advertising

Lerwick (Shetland Islands) weather history for previous 24 hours

 ConditionsComfort  
Time TempWeatherWind HumidityBarometerVisibility
3:00 PM
Dec 20
40 °FQuite cool.16 mph67%29.86 "Hg12 mi
2:00 PM41 °FOvercast.22 mph67%29.82 "Hg12 mi
1:00 PM41 °FSprinkles. Overcast.21 mph77%29.76 "Hg12 mi
12:00 PM42 °FPartly sunny.24 mph70%29.71 "Hg9 mi
11:00 AM41 °FPartly sunny.28 mph75%29.65 "Hg7 mi
10:00 AM41 °FOvercast.28 mph69%29.59 "Hg9 mi
9:00 AM40 °FPassing clouds.29 mph72%29.56 "Hg9 mi
8:00 AM39 °FPassing clouds.20 mph75%29.53 "Hg11 mi
7:00 AM39 °FPassing clouds.20 mph62%29.47 "Hg16 mi
6:00 AM38 °FPassing clouds.24 mph58%29.41 "Hg16 mi
5:00 AM38 °FPassing clouds.23 mph67%29.35 "Hg14 mi
4:00 AM36 °FLots of rain. Overcast.28 mph88%29.26 "Hg16 mi
3:00 AM37 °FOvercast.25 mph75%29.23 "Hg11 mi
2:00 AM36 °FChilly.22 mph85%29.21 "Hg12 mi
1:00 AM39 °FSprinkles. Overcast.26 mph58%29.21 "Hg11 mi
12:00 AM38 °FOvercast.24 mph82%29.21 "Hg11 mi
11:00 PM
Dec 19
40 °FOvercast.24 mph73%29.18 "Hg12 mi
10:00 PM37 °FOvercast.22 mph88%29.21 "Hg12 mi
9:00 PM36 °FOvercast.16 mph88%29.21 "Hg12 mi
8:00 PM38 °FSprinkles. Overcast.25 mph80%29.18 "Hg13 mi
7:00 PM36 °FSprinkles. Overcast.17 mph90%29.21 "Hg17 mi
6:00 PM39 °FPassing clouds.29 mph74%29.18 "Hg4 mi
5:00 PM40 °FOvercast.31 mph73%29.15 "Hg14 mi
4:00 PM41 °FPassing clouds.32 mph59%29.15 "Hg14 mi
Weather by CustomWeather, © 2014

See weather overviewHow to use our weather pages